Météo par heure à 3 internacional

Ce jour, 5 Décembre, Samedi

Heure Température Précipitation Vent Pression Humidité
00:00 -18°C° 0 mm 2 m/s 766 mmHg 91%
01:00 -18°C° 0 mm 2 m/s 766 mmHg 91%
02:00 -18°C° 0 mm 2 m/s 766 mmHg 91%
03:00 -19°C° 0 mm 2 m/s 766 mmHg 91%
04:00 -18°C° 0 mm 1 m/s 766 mmHg 87%
05:00 -18°C° 0 mm 1 m/s 766 mmHg 88%
06:00 -17°C° 0 mm 1 m/s 766 mmHg 88%
07:00 -17°C° 0 mm 1 m/s 766 mmHg 89%
08:00 -16°C° 0 mm 1 m/s 766 mmHg 84%
09:00 -15°C° 0 mm 1 m/s 766 mmHg 79%
10:00 -16°C° 0 mm 2 m/s 766 mmHg 74%
11:00 -15°C° 0 mm 2 m/s 766 mmHg 70%
12:00 -15°C° 0 mm 2 m/s 766 mmHg 65%
13:00 -14°C° 0 mm 2 m/s 766 mmHg 61%
14:00 -14°C° 0 mm 2 m/s 766 mmHg 65%
15:00 -15°C° 0 mm 2 m/s 766 mmHg 68%
16:00 -16°C° 0 mm 2 m/s 766 mmHg 72%
17:00 -16°C° 0 mm 2 m/s 766 mmHg 76%
18:00 -17°C° 0 mm 2 m/s 766 mmHg 79%
19:00 -17°C° 0 mm 2 m/s 766 mmHg 82%
20:00 -18°C° 0 mm 2 m/s 766 mmHg 84%
21:00 -18°C° 0 mm 2 m/s 766 mmHg 85%
22:00 -18°C° 0 mm 2 m/s 766 mmHg 87%
23:00 -18°C° 0 mm 2 m/s 766 mmHg 88%

Demain, 6 Décembre, Dimanche

Heure Température Précipitation Vent Pression Humidité
00:00 -19°C° 0 mm 2 m/s 766 mmHg 89%
01:00 -19°C° 0 mm 2 m/s 766 mmHg 89%
02:00 -19°C° 0 mm 2 m/s 767 mmHg 90%
03:00 -19°C° 0 mm 2 m/s 767 mmHg 90%
04:00 -19°C° 0 mm 2 m/s 767 mmHg 91%
05:00 -19°C° 0 mm 2 m/s 767 mmHg 91%
06:00 -19°C° 0 mm 2 m/s 767 mmHg 92%
07:00 -19°C° 0 mm 2 m/s 767 mmHg 93%
08:00 -18°C° 0 mm 2 m/s 767 mmHg 87%
09:00 -17°C° 0 mm 2 m/s 767 mmHg 82%
10:00 -16°C° 0 mm 2 m/s 768 mmHg 77%
11:00 -16°C° 0 mm 3 m/s 767 mmHg 74%
12:00 -15°C° 0 mm 3 m/s 767 mmHg 71%
13:00 -15°C° 0 mm 3 m/s 767 mmHg 69%
14:00 -15°C° 0 mm 3 m/s 767 mmHg 74%
15:00 -16°C° 0 mm 3 m/s 767 mmHg 79%
16:00 -17°C° 0 mm 3 m/s 767 mmHg 83%
17:00 -18°C° 0 mm 3 m/s 767 mmHg 85%
18:00 -18°C° 0 mm 3 m/s 767 mmHg 87%
19:00 -19°C° 0 mm 3 m/s 767 mmHg 89%
20:00 -19°C° 0 mm 3 m/s 767 mmHg 89%
21:00 -21°C° 0 mm 3 m/s 767 mmHg 90%
22:00 -21°C° 0 mm 3 m/s 766 mmHg 90%
23:00 -21°C° 0 mm 3 m/s 766 mmHg 90%

Après-demain, 7 Décembre, Lundi

Heure Température Précipitation Vent Pression Humidité
00:00 -21°C° 0 mm 3 m/s 766 mmHg 90%
01:00 -22°C° 0 mm 3 m/s 766 mmHg 90%
02:00 -22°C° 0 mm 3 m/s 766 mmHg 90%
03:00 -22°C° 0 mm 3 m/s 765 mmHg 91%
04:00 -23°C° 0 mm 4 m/s 765 mmHg 91%
05:00 -22°C° 0 mm 3 m/s 765 mmHg 91%
06:00 -22°C° 0 mm 3 m/s 765 mmHg 91%
07:00 -22°C° 0 mm 3 m/s 765 mmHg 92%
08:00 -21°C° 0 mm 3 m/s 766 mmHg 86%
09:00 -18°C° 0 mm 3 m/s 766 mmHg 80%
10:00 -17°C° 0 mm 3 m/s 766 mmHg 75%
11:00 -17°C° 0 mm 4 m/s 766 mmHg 72%
12:00 -16°C° 0 mm 4 m/s 766 mmHg 68%
13:00 -14°C° 0 mm 4 m/s 765 mmHg 65%
14:00 -15°C° 0 mm 4 m/s 766 mmHg 69%
15:00 -15°C° 0 mm 3 m/s 766 mmHg 72%
16:00 -16°C° 0 mm 3 m/s 766 mmHg 76%
17:00 -16°C° 0 mm 3 m/s 766 mmHg 78%
18:00 -16°C° 0 mm 2 m/s 766 mmHg 80%
19:00 -16°C° 0 mm 2 m/s 767 mmHg 82%
20:00 -17°C° 0 mm 2 m/s 767 mmHg 83%
21:00 -17°C° 0 mm 2 m/s 767 mmHg 85%
22:00 -17°C° 0 mm 2 m/s 767 mmHg 86%
23:00 -17°C° 0 mm 2 m/s 767 mmHg 87%

8 Décembre, Mardi

Heure Température Précipitation Vent Pression Humidité
00:00 -17°C° 0 mm 2 m/s 767 mmHg 87%
01:00 -18°C° 0 mm 2 m/s 767 mmHg 88%
02:00 -18°C° 0 mm 2 m/s 767 mmHg 88%
03:00 -18°C° 0 mm 2 m/s 767 mmHg 88%
04:00 -18°C° 0 mm 2 m/s 767 mmHg 89%
05:00 -18°C° 0 mm 2 m/s 768 mmHg 89%
06:00 -18°C° 0 mm 2 m/s 768 mmHg 89%
07:00 -18°C° 0 mm 2 m/s 768 mmHg 89%
08:00 -16°C° 0 mm 2 m/s 769 mmHg 84%
09:00 -15°C° 0 mm 2 m/s 769 mmHg 79%
10:00 -14°C° 0 mm 2 m/s 769 mmHg 74%
11:00 -12°C° 0 mm 2 m/s 769 mmHg 70%
12:00 -10°C° 0 mm 2 m/s 769 mmHg 67%
13:00 -9°C° 0 mm 2 m/s 769 mmHg 64%
14:00 -10°C° 0 mm 2 m/s 770 mmHg 68%
15:00 -10°C° 0 mm 2 m/s 770 mmHg 72%
16:00 -12°C° 0 mm 2 m/s 770 mmHg 76%
17:00 -13°C° 0 mm 2 m/s 770 mmHg 77%
18:00 -13°C° 0 mm 2 m/s 771 mmHg 79%
19:00 -13°C° 0 mm 2 m/s 771 mmHg 80%
20:00 -14°C° 0 mm 2 m/s 771 mmHg 81%
21:00 -12°C° 0 mm 1 m/s 771 mmHg 82%
22:00 -12°C° 0 mm 1 m/s 772 mmHg 83%
23:00 -12°C° 0 mm 1 m/s 772 mmHg 84%

9 Décembre, Mercredi

Heure Température Précipitation Vent Pression Humidité
00:00 -12°C° 0 mm 1 m/s 771 mmHg 84%
01:00 -12°C° 0 mm 1 m/s 771 mmHg 85%
02:00 -12°C° 0 mm 1 m/s 771 mmHg 84%
03:00 -14°C° 0 mm 2 m/s 771 mmHg 84%
04:00 -14°C° 0 mm 2 m/s 771 mmHg 84%
05:00 -14°C° 0 mm 2 m/s 771 mmHg 83%
06:00 -15°C° 0 mm 2 m/s 771 mmHg 83%
07:00 -15°C° 0 mm 2 m/s 771 mmHg 83%
08:00 -13°C° 0 mm 2 m/s 771 mmHg 76%
09:00 -12°C° 0 mm 2 m/s 771 mmHg 70%
10:00 -9°C° 0 mm 2 m/s 771 mmHg 64%
11:00 -8°C° 0 mm 2 m/s 771 mmHg 61%
12:00 -7°C° 0 mm 2 m/s 770 mmHg 58%
13:00 -7°C° 0 mm 3 m/s 770 mmHg 55%
14:00 -8°C° 0 mm 3 m/s 770 mmHg 60%
15:00 -9°C° 0 mm 3 m/s 770 mmHg 66%
16:00 -10°C° 0 mm 3 m/s 769 mmHg 71%
17:00 -12°C° 0 mm 3 m/s 769 mmHg 72%
18:00 -12°C° 0 mm 3 m/s 769 mmHg 74%
19:00 -13°C° 0 mm 3 m/s 769 mmHg 75%
20:00 -13°C° 0 mm 3 m/s 769 mmHg 75%
21:00 -13°C° 0 mm 3 m/s 769 mmHg 76%
22:00 -12°C° 0 mm 2 m/s 768 mmHg 76%
23:00 -13°C° 0 mm 2 m/s 768 mmHg 77%

10 Décembre, Jeudi

Heure Température Précipitation Vent Pression Humidité
00:00 -13°C° 0 mm 2 m/s 768 mmHg 77%
01:00 -13°C° 0 mm 2 m/s 768 mmHg 77%
02:00 -13°C° 0 mm 2 m/s 768 mmHg 77%
03:00 -13°C° 0 mm 2 m/s 768 mmHg 76%
04:00 -13°C° 0 mm 2 m/s 768 mmHg 76%
05:00 -13°C° 0 mm 2 m/s 768 mmHg 76%
06:00 -13°C° 0 mm 2 m/s 768 mmHg 75%
07:00 -13°C° 0 mm 2 m/s 768 mmHg 75%
08:00 -13°C° 0 mm 3 m/s 768 mmHg 69%
09:00 -10°C° 0 mm 3 m/s 769 mmHg 64%
10:00 -9°C° 0 mm 3 m/s 769 mmHg 58%
11:00 -8°C° 0 mm 3 m/s 768 mmHg 56%
12:00 -7°C° 0 mm 3 m/s 768 mmHg 54%
13:00 -6°C° 0 mm 3 m/s 768 mmHg 51%
14:00 -7°C° 0 mm 3 m/s 768 mmHg 58%
15:00 -8°C° 0 mm 3 m/s 768 mmHg 65%
16:00 -9°C° 0 mm 3 m/s 768 mmHg 72%
17:00 -10°C° 0 mm 3 m/s 768 mmHg 74%
18:00 -11°C° 0 mm 4 m/s 768 mmHg 76%
19:00 -12°C° 0 mm 4 m/s 768 mmHg 78%
20:00 -12°C° 0 mm 4 m/s 768 mmHg 79%
21:00 -14°C° 0 mm 4 m/s 768 mmHg 81%
22:00 -14°C° 0 mm 4 m/s 768 mmHg 82%
23:00 -14°C° 0 mm 4 m/s 768 mmHg 83%
Voir plus

Nous avons besoin de votre consentement

Meteoprog et ses fournisseurs de services peuvent stocker et accéder à des données personnelles telles que des cookies, des identifiants d'appareils ou d'autres technologies similaires sur votre appareil et traiter ces données pour personnaliser le contenu et les publicités, ainsi que pour fournir des fonctionnalités de médias sociaux et analyser le trafic.

  • Stocker et/ou accéder à des informations sur votre appareil

    Des cookies, des identifiants d'appareils ou d'autres informations peuvent être stockés ou accessibles sur votre appareil aux fins indiquées ci-dessus.

  • Annonces et contenus personnalisés, mesure des annonces et des contenus, connaissance de l'audience et développement de produits

    Les annonces et le contenu peuvent être personnalisés en fonction d'un profil. D'autres données peuvent être ajoutées pour mieux personnaliser les annonces et le contenu. Les performances des publicités et du contenu peuvent être mesurées. Il est possible d'obtenir des informations sur le public qui a vu les publicités et le contenu. Ces données peuvent être utilisées pour développer ou améliorer l'expérience de l'utilisateur, les systèmes et les logiciels.

En cliquant sur "J'accepte", vous autorisez l'utilisation de cookies, des identifiants d'appareils, des balises web ou d'autres technologies similaires. Vos paramètres peuvent être modifiés dans le navigateur de votre appareil.

Dans certains cas, des intérêts légitimes peuvent être invoqués plutôt qu'un consentement. Vous pouvez en savoir plus à ce sujet dans notre Politique de confidentialité et de cookies.